| time (UTC) | temp C | wind direction | speed KPH | gust KPH | rain 1hr cm | rain 24hr cm | rain mn cm | humidity % | barometer mb |
| 20260505200026 | 13 | 56 | 1.6 | 9.7 | 0.00 | 0.00 | 0.00 | 68 | 1012.7 |
| 20260505194529 | 13 | 56 | 4.8 | 14.5 | 0.00 | 0.00 | 0.00 | 66 | 1012.5 |
| 20260505193030 | 13 | 25 | 3.2 | 6.4 | 0.00 | 0.00 | 0.00 | 65 | 1012.5 |
| 20260505191515 | 13 | 58 | 1.6 | 4.8 | 0.00 | 0.00 | 0.00 | 64 | 1012.3 |
| 20260505190032 | 14 | 39 | 1.6 | 6.4 | 0.00 | 0.00 | 0.00 | 64 | 1012.2 |
| 20260505184526 | 14 | 67 | 1.6 | 4.8 | 0.00 | 0.00 | 0.00 | 63 | 1012.2 |
| 20260505183031 | 14 | 53 | 3.2 | 6.4 | 0.00 | 0.00 | 0.00 | 63 | 1012.1 |
| 20260505181532 | 14 | 69 | 3.2 | 6.4 | 0.00 | 0.00 | 0.00 | 62 | 1012.1 |
| 20260505180017 | 15 | 44 | 1.6 | 8.0 | 0.00 | 0.00 | 0.00 | 62 | 1012.2 |
| 20260505174523 | 15 | 100 | 1.6 | 12.9 | 0.00 | 0.00 | 0.00 | 62 | 1012.1 |
| 20260505173036 | 15 | 84 | 4.8 | 11.3 | 0.00 | 0.00 | 0.00 | 60 | 1012.2 |
| 20260505171542 | 15 | 84 | 4.8 | 12.9 | 0.00 | 0.00 | 0.00 | 59 | 1012.2 |
| 20260505170030 | 15 | 56 | 4.8 | 12.9 | 0.00 | 0.00 | 0.00 | 59 | 1012.3 |
| 20260505164523 | 15 | 90 | 1.6 | 4.8 | 0.00 | 0.00 | 0.00 | 61 | 1012.3 |
| 20260505163024 | 15 | 68 | 3.2 | 6.4 | 0.00 | 0.00 | 0.00 | 60 | 1012.3 |
| 20260505161526 | 15 | 50 | 3.2 | 8.0 | 0.00 | 0.00 | 0.00 | 60 | 1012.3 |
| 20260505153021 | 15 | 106 | 1.6 | 11.3 | 0.00 | 0.00 | 0.00 | 63 | 1012.4 |
| 20260505151531 | 15 | 82 | 3.2 | 9.7 | 0.00 | 0.00 | 0.00 | 63 | 1012.5 |
| 20260505124526 | 15 | 347 | 1.6 | 11.3 | 0.00 | 0.00 | 0.00 | 57 | 1013.0 |
| 20260505123029 | 15 | 86 | 1.6 | 9.7 | 0.00 | 0.00 | 0.00 | 57 | 1013.0 |
| 20260505121532 | 16 | 59 | 1.6 | 8.0 | 0.00 | 0.00 | 0.00 | 57 | 1013.1 |
| 20260505120048 | 16 | 94 | 1.6 | 9.7 | 0.00 | 0.00 | 0.00 | 58 | 1013.1 |
| 20260505114523 | 15 | 23 | 3.2 | 8.0 | 0.00 | 0.00 | 0.00 | 62 | 1013.2 |
| 20260505113010 | 14 | 39 | 1.6 | 9.7 | 0.00 | 0.00 | 0.00 | 66 | 1013.2 |
| 20260505111517 | 14 | 82 | 1.6 | 8.0 | 0.00 | 0.00 | 0.00 | 68 | 1013.3 |
| 20260505101519 | 12 | 76 | 3.2 | 8.0 | 0.00 | 0.00 | 0.00 | 75 | 1013.6 |
| 20260505100022 | 12 | 60 | 3.2 | 11.3 | 0.00 | 0.00 | 0.00 | 75 | 1013.6 |
| 20260505094522 | 12 | 39 | 1.6 | 6.4 | 0.00 | 0.00 | 0.00 | 74 | 1013.7 |
| 20260505093025 | 12 | 115 | 1.6 | 9.7 | 0.00 | 0.00 | 0.00 | 76 | 1013.8 |
| 20260505091528 | 12 | 46 | 3.2 | 9.7 | 0.00 | 0.00 | 0.00 | 77 | 1013.8 |
| 20260505090026 | 12 | 72 | 1.6 | 6.4 | 0.00 | 0.00 | 0.00 | 77 | 1013.8 |
| 20260505084520 | 12 | 46 | 4.8 | 8.0 | 0.00 | 0.00 | 0.00 | 78 | 1013.9 |
| 20260505083021 | 12 | 94 | 1.6 | 8.0 | 0.00 | 0.00 | 0.00 | 81 | 1013.9 |
| 20260505081512 | 11 | 64 | 1.6 | 6.4 | 0.00 | 0.00 | 0.00 | 83 | 1014.0 |
| 20260505080011 | 11 | 283 | 3.2 | 6.4 | 0.00 | 0.00 | 0.00 | 83 | 1013.9 |
| 20260505074515 | 11 | 58 | 1.6 | 4.8 | 0.00 | 0.00 | 0.00 | 83 | 1013.9 |
| 20260505073032 | 11 | 110 | 1.6 | 6.4 | 0.00 | 0.00 | 0.00 | 84 | 1013.8 |
| 20260505071524 | 11 | 221 | 1.6 | 6.4 | 0.00 | 0.00 | 0.00 | 84 | 1013.9 |
| 20260505070010 | 11 | 80 | 1.6 | 6.4 | 0.00 | 0.00 | 0.00 | 85 | 1014.0 |
| 20260505064531 | 11 | 89 | 1.6 | 4.8 | 0.00 | 0.00 | 0.00 | 85 | 1014.0 |
| 20260505063019 | 10 | 286 | 0.0 | 6.4 | 0.00 | 0.00 | 0.00 | 86 | 1014.0 |
| 20260505061531 | 10 | 46 | 1.6 | 4.8 | 0.00 | 0.00 | 0.00 | 87 | 1014.0 |
| 20260505060028 | 10 | 34 | 0.0 | 1.6 | 0.00 | 0.00 | 0.00 | 87 | 1014.1 |
| 20260505054510 | 10 | 49 | 0.0 | 4.8 | 0.00 | 0.00 | 0.00 | 87 | 1014.1 |
| 20260505053013 | 10 | 47 | 1.6 | 6.4 | 0.00 | 0.00 | 0.00 | 87 | 1014.2 |
| 20260505051521 | 10 | 50 | 0.0 | 4.8 | 0.00 | 0.00 | 0.00 | 87 | 1014.1 |
| 20260505041520 | 10 | 45 | 0.0 | 3.2 | 0.00 | 0.00 | 0.00 | 87 | 1014.3 |
| 20260505040021 | 10 | 73 | 0.0 | 4.8 | 0.00 | 0.00 | 0.00 | 87 | 1014.3 |
| 20260505034528 | 10 | 47 | 0.0 | 4.8 | 0.00 | 0.00 | 0.00 | 87 | 1014.3 |
| 20260505033028 | 10 | 55 | 1.6 | 4.8 | 0.00 | 0.00 | 0.00 | 87 | 1014.3 |
| 20260505031536 | 10 | 72 | 1.6 | 3.2 | 0.00 | 0.00 | 0.00 | 87 | 1014.3 |
| 20260505030022 | 10 | 78 | 0.0 | 3.2 | 0.00 | 0.00 | 0.00 | 87 | 1014.3 |
| 20260505024533 | 10 | 27 | 0.0 | 3.2 | 0.00 | 0.00 | 0.00 | 87 | 1014.2 |
| 20260505023028 | 10 | 39 | 0.0 | 4.8 | 0.00 | 0.00 | 0.00 | 87 | 1014.4 |
| 20260505021530 | 10 | 42 | 0.0 | 1.6 | 0.00 | 0.00 | 0.00 | 87 | 1014.4 |
| 20260505020027 | 10 | 42 | 1.6 | 3.2 | 0.00 | 0.00 | 0.00 | 86 | 1014.3 |
| 20260505014528 | 10 | 16 | 1.6 | 4.8 | 0.00 | 0.00 | 0.00 | 85 | 1014.3 |
| 20260505013025 | 11 | 70 | 1.6 | 3.2 | 0.00 | 0.00 | 0.00 | 85 | 1014.6 |
| 20260505011533 | 11 | 68 | 0.0 | 3.2 | 0.00 | 0.00 | 0.00 | 84 | 1014.8 |
| 20260505010027 | 11 | 75 | 0.0 | 4.8 | 0.00 | 0.00 | 0.00 | 83 | 1014.9 |
| 20260505004537 | 11 | 81 | 1.6 | 3.2 | 0.00 | 0.00 | 0.00 | 83 | 1015.0 |
| 20260505003024 | 11 | 72 | 0.0 | 4.8 | 0.00 | 0.00 | 0.00 | 83 | 1014.9 |
| 20260505001528 | 11 | 50 | 1.6 | 4.8 | 0.00 | 0.00 | 0.00 | 83 | 1015.0 |
| 20260505000039 | 11 | 37 | 1.6 | 3.2 | 0.00 | 0.00 | 0.00 | 83 | 1015.0 |
| 20260504234531 | 11 | 37 | 0.0 | 1.6 | 0.00 | 0.00 | 0.00 | 83 | 1015.3 |
| 20260504233022 | 11 | 37 | 0.0 | 1.6 | 0.00 | 0.00 | 0.00 | 83 | 1015.3 |
| 20260504231522 | 11 | 52 | 0.0 | 1.6 | 0.00 | 0.00 | 0.00 | 84 | 1015.3 |
| 20260504230025 | 12 | 52 | 0.0 | 3.2 | 0.00 | 0.00 | 0.00 | 82 | 1015.3 |
| 20260504224529 | 12 | 60 | 1.6 | 6.4 | 0.00 | 0.00 | 0.00 | 82 | 1015.3 |
| 20260504223031 | 12 | 51 | 0.0 | 4.8 | 0.00 | 0.00 | 0.00 | 81 | 1015.4 |
| 20260504221522 | 12 | 50 | 0.0 | 3.2 | 0.00 | 0.00 | 0.00 | 80 | 1015.4 |
| 20260504220028 | 12 | 33 | 1.6 | 6.4 | 0.00 | 0.00 | 0.00 | 79 | 1015.4 |
| 20260504214528 | 12 | 53 | 1.6 | 6.4 | 0.00 | 0.00 | 0.00 | 79 | 1015.5 |
| 20260504213029 | 13 | 39 | 1.6 | 6.4 | 0.00 | 0.00 | 0.00 | 79 | 1015.6 |
| 20260504211530 | 13 | 77 | 0.0 | 4.8 | 0.00 | 0.00 | 0.00 | 79 | 1015.5 |
| 20260504210024 | 13 | 14 | 1.6 | 8.0 | 0.00 | 0.00 | 0.00 | 80 | 1015.5 |
| 20260504204528 | 13 | 53 | 1.6 | 4.8 | 0.00 | 0.00 | 0.00 | 80 | 1015.5 |
| 20260504203030 | 13 | 77 | 1.6 | 6.4 | 0.00 | 0.00 | 0.00 | 80 | 1015.5 |
| 20260504201530 | 13 | 64 | 1.6 | 6.4 | 0.00 | 0.00 | 0.00 | 79 | 1015.3 |